Wind_Speed
3 3 3 3 3 3 4 4 4 5 5 5 4 4 4 4 4 4 4 4 5 5 6 6 6 6 6 7 7 7 8 8 8 8 9 9 10 10 10 11 11 12 12
5 4 4 4 4 4 4 5 5 6 6 6 5 5 5 5 5 6 6 6 6 6 7 7 7 8 8 8 8 9 9 9 9 10 10 10 11 11 11 12 12 13 13
6 6 6 6 6 5 5 6 6 6 6 6 6 6 6 7 7 7 7 7 7 8 8 8 8 9 9 10 10 10 10 10 11 11 11 12 12 12 12 13 13 14 14
7 7 7 7 7 7 7 7 7 7 8 8 7 8 8 8 8 8 8 8 8 9 8 9 9 10 10 11 12 12 12 12 12 12 12 13 13 13 13 14 14 15 16
8 8 8 8 8 8 8 8 9 9 9 9 9 9 9 10 10 10 10 9 9 10 10 10 10 11 11 12 13 13 13 13 13 14 14 14 15 14 15 15 15 16 16
10 9 9 9 9 9 9 9 10 10 10 10 10 10 10 11 11 11 11 11 11 11 11 12 12 12 13 13 14 14 15 15 15 15 15 15 16 16 16 16 16 17 17
10 10 11 11 11 10 10 11 11 11 11 11 11 12 12 12 12 12 12 12 12 12 13 13 13 14 14 14 14 15 15 15 16 16 16 17 17 17 17 18 18 18 18
11 12 12 11 12 12 12 12 12 12 12 12 12 13 13 13 13 13 13 14 14 14 15 15 15 16 16 16 16 16 17 17 17 18 17 18 18 18 19 19 20 20 20
12 12 12 12 13 12 12 13 14 14 13 13 14 14 15 15 14 15 15 16 16 16 17 18 18 18 18 17 18 18 19 19 19 19 19 19 20 20 20 21 22 22 21
13 12 12 13 13 13 14 14 14 15 15 14 14 15 16 16 16 17 17 18 18 18 18 19 19 19 19 19 19 20 20 21 21 21 21 21 21 21 22 22 22 22 23
14 14 14 15 15 15 15 15 15 15 16 15 16 16 17 18 18 18 18 19 19 19 19 19 20 20 20 21 22 22 22 22 23 23 22 22 22 23 23 23 23 23 23
15 15 16 16 16 17 17 17 16 16 16 16 17 18 18 19 19 18 19 20 20 20 20 21 21 22 22 23 23 24 24 24 24 24 24 23 24 24 24 24 24 24 24
15 16 17 17 17 18 18 18 17 17 17 17 18 19 18 19 19 19 20 21 21 21 21 22 23 23 24 24 24 24 24 25 25 25 25 25 24 24 24 24 25 25 25
16 16 17 18 18 19 19 19 18 18 18 18 18 19 19 19 20 20 21 21 21 21 22 23 23 24 25 24 24 25 25 25 26 26 26 26 26 25 25 25 25 25 25
15 15 16 17 18 19 19 19 19 19 19 18 18 19 19 20 21 21 22 22 22 23 23 23 23 24 25 25 25 25 26 26 27 27 27 27 27 27 28 27 26 26 26
15 15 16 17 18 19 19 19 19 19 19 20 20 20 21 22 22 23 23 23 23 24 24 24 24 24 25 26 26 27 27 27 28 28 28 27 27 28 28 29 28 28 27
16 16 17 18 18 19 19 19 20 20 20 21 21 21 22 22 23 24 24 24 24 24 25 25 24 25 25 25 26 27 27 27 28 28 29 29 29 28 29 29 29 28 28
16 17 18 17 17 17 18 19 20 20 21 22 22 23 23 23 23 25 25 25 24 24 24 24 24 25 25 25 26 26 27 26 27 28 29 29 29 28 28 28 28 29 28
17 17 17 17 17 18 19 19 21 21 21 22 22 22 23 23 24 24 24 24 24 24 24 24 24 24 25 25 25 26 26 26 26 27 28 29 29 29 28 28 29 29 29
17 17 17 17 18 19 20 20 20 20 20 21 21 21 22 23 22 22 23 23 23 23 24 24 24 24 24 25 25 25 26 26 26 26 27 27 28 29 29 29 28 30 30
17 17 18 18 19 19 19 19 20 19 20 20 20 21 22 22 22 23 23 24 24 24 23 23 23 23 24 25 25 25 26 27 27 26 26 27 27 28 29 29 29 29 30
16 17 17 17 17 19 19 19 19 19 19 19 19 20 21 21 21 23 23 24 24 24 23 23 23 23 23 24 24 25 25 25 26 26 27 27 28 29 29 29 29 29 30
16 17 17 17 18 19 19 19 19 19 19 19 20 20 19 20 21 22 23 23 23 24 24 24 23 24 24 24 24 25 25 24 25 26 27 28 28 28 29 29 29 29 30
16 16 16 17 18 18 17 18 19 18 18 19 20 19 19 20 21 22 22 23 23 23 24 24 24 23 24 24 24 24 25 25 25 25 26 27 28 28 28 29 30 30 30
16 16 16 17 18 17 17 17 18 18 19 19 19 20 20 21 21 23 23 24 24 24 24 23 23 23 24 24 24 25 25 26 26 26 26 26 27 27 27 28 29 29 30
16 16 17 18 18 17 17 17 18 18 18 19 19 20 20 21 22 23 23 23 23 23 23 22 23 24 24 24 25 25 25 25 26 26 26 26 27 27 28 28 29 30 31
Wind_Direction
259 262 264 264 256 246 241 251 263 268 268 266 264 268 264 262 264 267 269 274 276 277 276 276 277 277 275 272 270 267 265 264 264 264 263 261 259 258 256 254 250 248 246
263 262 264 268 263 266 260 261 263 269 271 272 271 270 269 266 267 270 272 275 278 280 280 277 274 274 272 270 269 268 266 263 263 264 263 262 261 260 259 259 256 253 251
270 261 268 269 266 267 269 268 264 266 270 273 270 266 268 268 268 271 274 275 277 277 277 277 276 273 271 270 268 267 266 265 264 263 261 261 261 260 260 259 258 256 255
274 270 269 268 265 267 271 272 268 269 271 273 268 265 267 270 270 271 274 275 276 277 275 276 274 273 272 270 268 267 266 263 264 264 262 261 261 261 260 259 258 256 255
277 272 268 268 264 265 271 275 275 276 275 272 269 268 269 269 271 273 274 275 275 276 276 276 274 273 272 271 270 269 268 267 266 263 262 260 261 260 259 259 258 257 257
284 275 268 268 267 267 268 275 277 277 275 272 271 272 272 273 273 273 274 275 276 277 276 277 277 275 272 271 272 272 272 271 270 265 263 263 262 261 259 258 258 258 257
284 282 273 271 271 270 271 273 273 274 274 275 274 273 274 275 276 275 274 275 277 278 278 279 279 279 275 271 271 271 271 272 271 269 268 265 264 263 260 259 259 258 258
281 284 278 275 273 272 274 275 275 273 273 278 277 277 278 277 276 277 275 276 277 280 281 279 278 278 277 274 273 272 271 271 271 271 272 269 266 265 263 260 258 258 258
281 280 278 277 276 272 274 277 276 278 276 277 279 280 280 280 281 280 278 278 277 279 279 278 278 278 277 275 275 274 273 270 270 271 271 271 269 266 265 263 260 258 258
278 278 279 279 275 276 277 275 278 281 279 277 280 281 280 279 280 282 280 280 279 279 280 279 279 279 278 276 277 277 274 271 269 269 270 271 270 267 265 263 262 260 259
277 276 278 277 274 275 276 277 277 280 280 278 280 283 283 281 280 280 280 281 282 281 281 280 279 277 276 278 278 277 275 271 271 270 269 269 268 267 265 264 262 261 259
276 276 276 277 275 276 276 276 279 281 284 281 280 283 284 282 282 281 283 282 281 279 278 279 278 278 277 278 277 276 276 273 273 271 269 268 268 268 266 264 263 262 259
278 276 277 275 276 276 276 276 279 282 283 284 283 283 286 285 283 283 284 284 283 281 280 279 279 278 280 279 276 275 275 273 273 273 271 269 267 266 265 264 264 262 261
280 278 277 277 276 276 275 274 277 279 281 283 285 283 283 285 286 286 286 286 283 282 281 282 282 281 281 281 279 276 275 275 274 272 271 269 266 264 263 264 264 263 263
282 281 279 278 277 276 273 271 273 276 279 281 284 285 283 285 287 286 286 285 284 283 283 285 284 282 281 280 279 277 277 275 273 271 270 268 265 264 263 263 263 264 262
283 283 282 280 277 276 274 274 275 277 279 281 284 284 283 284 287 286 286 286 286 285 285 285 283 281 280 279 279 279 278 277 274 270 268 267 265 264 264 263 263 263 262
286 286 286 281 280 279 277 275 276 277 278 280 283 285 286 286 287 286 286 288 287 285 285 283 282 282 282 281 281 281 280 280 276 270 268 267 266 264 264 263 262 262 261
289 289 288 283 284 282 280 278 277 277 278 281 282 284 287 288 290 288 288 288 288 286 284 283 283 283 283 282 282 283 282 281 278 273 270 267 266 265 263 261 261 262 261
288 290 290 288 289 288 285 283 281 280 280 281 283 284 287 290 292 293 292 291 289 288 287 286 285 284 283 282 282 283 282 281 279 275 273 270 267 266 264 263 262 261 261
289 293 294 292 292 290 289 289 287 285 282 281 283 284 287 288 291 296 296 294 292 291 289 288 288 286 283 281 282 282 281 279 277 276 274 272 269 266 264 264 263 262 261
290 293 295 295 294 293 292 290 289 286 284 283 283 284 287 290 292 294 295 296 294 292 292 292 291 287 285 283 281 281 281 279 277 276 274 273 272 269 266 264 263 262 262
292 291 295 298 297 294 292 290 288 288 286 285 286 286 288 292 294 296 297 295 294 292 293 293 291 289 288 287 285 282 282 279 276 275 274 273 272 270 266 264 264 262 260
299 296 295 295 296 295 292 289 290 290 290 291 292 291 291 293 296 297 296 295 295 295 295 293 292 291 289 288 289 286 284 281 276 274 272 272 271 270 266 264 262 261 258
305 302 298 299 299 297 293 292 294 292 292 292 292 292 293 294 295 297 297 296 296 297 296 294 292 292 291 290 290 288 284 280 278 276 273 272 271 271 268 264 261 260 259
307 307 307 305 305 304 300 297 296 294 291 291 293 294 296 295 295 297 298 299 299 297 296 295 292 292 293 293 291 289 286 282 280 278 276 274 272 270 268 265 261 259 259
309 308 310 311 308 307 304 301 298 296 295 294 294 296 298 298 298 299 299 300 300 298 297 297 294 295 296 295 293 290 287 283 280 279 276 275 273 270 268 266 263 259 258
Height
5893 5893 5892 5891 5891 5891 5891 5891 5890 5890 5890 5889 5889 5889 5888 5888 5888 5887 5887 5886 5886 5886 5885 5885 5885 5885 5885 5884 5884 5884 5884 5884 5884 5884 5884 5884 5884 5884 5885 5885 5885 5886 5886
5892 5891 5891 5890 5890 5889 5889 5889 5889 5888 5888 5888 5887 5887 5886 5886 5886 5886 5885 5884 5884 5884 5883 5883 5883 5883 5882 5882 5882 5882 5882 5882 5882 5882 5882 5882 5882 5882 5882 5883 5883 5884 5884
5890 5889 5889 5889 5889 5888 5887 5887 5887 5886 5886 5886 5885 5885 5884 5884 5884 5884 5883 5883 5882 5881 5881 5881 5881 5880 5880 5880 5880 5879 5879 5879 5879 5879 5879 5879 5879 5880 5880 5880 5880 5881 5881
5888 5887 5887 5887 5886 5886 5886 5885 5885 5884 5884 5883 5883 5882 5882 5882 5882 5881 5881 5880 5879 5879 5878 5878 5878 5878 5878 5877 5877 5877 5876 5876 5876 5876 5876 5876 5877 5877 5877 5877 5878 5878 5878
5886 5886 5885 5885 5884 5884 5883 5883 5882 5882 5881 5881 5880 5880 5879 5879 5879 5879 5878 5877 5877 5876 5876 5876 5875 5875 5875 5874 5874 5874 5873 5873 5873 5873 5873 5873 5873 5874 5874 5874 5874 5875 5875
5884 5883 5883 5882 5882 5881 5881 5881 5880 5879 5879 5878 5878 5877 5877 5876 5876 5875 5875 5874 5874 5873 5873 5873 5872 5872 5871 5871 5871 5871 5870 5870 5870 5870 5870 5870 5870 5870 5870 5871 5871 5871 5872
5882 5881 5880 5880 5879 5879 5878 5878 5877 5876 5876 5875 5875 5875 5874 5873 5872 5872 5871 5871 5871 5870 5870 5870 5869 5868 5868 5868 5867 5867 5867 5867 5866 5866 5866 5866 5866 5866 5866 5867 5867 5868 5868
5879 5878 5877 5876 5876 5875 5875 5875 5874 5874 5873 5872 5872 5871 5870 5870 5869 5869 5868 5867 5867 5866 5866 5866 5865 5865 5864 5864 5863 5863 5863 5863 5863 5862 5862 5862 5862 5862 5863 5863 5863 5863 5864
5876 5876 5875 5873 5873 5872 5872 5871 5871 5871 5870 5869 5868 5868 5867 5866 5865 5865 5864 5864 5863 5863 5862 5862 5861 5861 5860 5860 5860 5859 5859 5858 5858 5858 5858 5858 5858 5858 5858 5858 5858 5859 5859
5874 5873 5872 5871 5870 5870 5869 5868 5868 5867 5866 5865 5864 5864 5863 5862 5861 5861 5860 5860 5859 5858 5858 5857 5856 5856 5856 5855 5855 5855 5854 5853 5853 5853 5853 5853 5853 5852 5853 5853 5853 5854 5854
5871 5870 5869 5868 5867 5866 5865 5864 5864 5863 5862 5861 5860 5860 5859 5858 5857 5856 5856 5855 5855 5854 5853 5852 5852 5851 5850 5850 5850 5849 5848 5848 5847 5847 5847 5847 5847 5847 5847 5847 5848 5848 5849
5868 5867 5865 5864 5863 5862 5862 5861 5860 5860 5858 5857 5857 5856 5855 5853 5852 5851 5851 5851 5850 5849 5848 5847 5846 5845 5844 5844 5844 5843 5842 5842 5841 5841 5841 5842 5841 5841 5841 5842 5842 5842 5843
5864 5863 5862 5860 5859 5859 5858 5857 5856 5856 5855 5853 5852 5851 5850 5849 5848 5847 5847 5845 5844 5843 5843 5842 5841 5840 5839 5838 5838 5837 5836 5836 5835 5835 5835 5835 5835 5835 5835 5835 5836 5836 5837
5860 5858 5857 5856 5855 5854 5853 5853 5852 5852 5850 5849 5848 5847 5846 5845 5844 5843 5842 5840 5839 5838 5837 5836 5835 5834 5832 5832 5831 5831 5830 5829 5829 5828 5828 5829 5829 5828 5829 5829 5830 5830 5831
5855 5854 5853 5852 5851 5849 5848 5848 5847 5847 5846 5844 5843 5842 5841 5840 5839 5838 5837 5836 5834 5833 5831 5830 5829 5828 5826 5826 5825 5824 5823 5823 5822 5821 5821 5821 5821 5822 5822 5822 5823 5823 5824
5851 5850 5848 5847 5846 5844 5843 5843 5842 5841 5840 5839 5838 5837 5836 5835 5834 5833 5831 5830 5829 5827 5825 5824 5823 5821 5820 5819 5818 5817 5816 5815 5815 5814 5814 5814 5814 5815 5815 5815 5816 5817 5817
5847 5846 5844 5842 5841 5839 5838 5837 5836 5836 5835 5834 5833 5832 5830 5829 5828 5827 5825 5824 5822 5821 5819 5818 5816 5814 5813 5812 5810 5809 5808 5807 5807 5806 5806 5806 5807 5807 5808 5808 5809 5809 5810
5843 5841 5839 5837 5836 5834 5833 5832 5831 5830 5829 5828 5827 5826 5824 5823 5822 5821 5819 5818 5816 5814 5812 5811 5809 5807 5806 5805 5803 5802 5801 5800 5799 5798 5798 5798 5799 5800 5800 5801 5801 5802 5803
5839 5837 5835 5833 5831 5829 5828 5826 5825 5824 5823 5822 5820 5820 5819 5817 5816 5815 5813 5811 5809 5807 5805 5804 5802 5800 5799 5797 5796 5795 5794 5793 5792 5791 5791 5791 5791 5792 5793 5793 5794 5795 5796
5835 5833 5831 5829 5826 5824 5822 5820 5819 5818 5817 5816 5815 5814 5812 5811 5810 5809 5807 5805 5803 5801 5799 5796 5794 5793 5791 5790 5789 5788 5787 5786 5785 5784 5784 5784 5784 5784 5784 5785 5786 5787 5787
5830 5829 5826 5824 5822 5819 5817 5815 5814 5813 5812 5811 5810 5808 5807 5805 5805 5803 5801 5798 5796 5794 5792 5790 5788 5786 5784 5783 5782 5781 5779 5778 5777 5777 5776 5776 5776 5776 5776 5777 5778 5779 5779
5826 5824 5822 5820 5817 5815 5813 5811 5810 5809 5807 5806 5804 5803 5801 5800 5799 5797 5795 5792 5790 5788 5786 5784 5782 5780 5778 5776 5775 5773 5772 5771 5770 5770 5769 5769 5768 5768 5768 5769 5770 5771 5771
5822 5820 5818 5816 5814 5811 5809 5807 5806 5804 5803 5801 5800 5798 5796 5794 5793 5791 5789 5786 5784 5782 5780 5778 5776 5774 5772 5770 5767 5766 5764 5764 5763 5763 5762 5761 5761 5760 5761 5761 5761 5762 5763
5820 5817 5814 5812 5810 5807 5805 5803 5801 5800 5798 5797 5795 5793 5791 5789 5787 5785 5783 5780 5778 5776 5774 5772 5770 5767 5765 5763 5761 5759 5757 5756 5755 5755 5754 5753 5753 5752 5752 5752 5753 5754 5755
5817 5814 5812 5809 5806 5803 5801 5799 5797 5796 5794 5792 5790 5788 5786 5784 5782 5779 5777 5775 5773 5771 5768 5766 5763 5761 5759 5757 5755 5752 5750 5748 5747 5746 5746 5745 5745 5744 5744 5744 5745 5746 5747
5814 5811 5808 5806 5803 5800 5797 5795 5793 5791 5789 5787 5785 5783 5781 5778 5776 5774 5772 5769 5767 5765 5762 5760 5757 5755 5753 5750 5747 5745 5743 5741 5740 5738 5738 5738 5737 5737 5737 5736 5736 5737 5738